Weather History for Huntingburg, IN

Change the Weather History Date:

Saturday, January 19, 2013

  Actual Average Record
Temperature  
Mean Temperature 45 °F -  
Max Temperature 55 °F 36 °F 60 °F (2006)
Min Temperature 35 °F 22 °F 6 °F (2003)
Degree Days  
Heating Degree Days 20    
Moisture  
Dew Point 29 °F    
Average Humidity 54    
Maximum Humidity 70    
Minimum Humidity 38    
Precipitation  
Precipitation 0.00 in - - ()
Sea Level Pressure  
Sea Level Pressure 30.14 in    
Wind  
Wind Speed 16 mph (SSW)    
Max Wind Speed 25 mph    
Max Gust Speed 34 mph    
Visibility 10 miles    
Events      
Averages and records for this station are not official NWS values.
T = Trace of Precipitation, MM = Missing Value Source: NWS Daily Summary

Daily Weather History Graph

Daily Weather History Graph

Search for Another Location

Airport:

Trip Planner

Search our weather history database for the weather conditions in past years. The results will help you decide how hot, cold, wet, or windy it might be!

Date:

Astronomy

Jan. 19, 2013 Rise Set
Actual Time 8:01 AM EST 5:56 PM EST
Civil Twilight 7:32 AM EST 6:24 PM EST
Nautical Twilight 7:00 AM EST 6:57 PM EST
Astronomical Twilight 6:28 AM EST 7:28 PM EST
Moon 12:21 PM EST (1/19) 1:36 AM EST (1/19)
Length of Visible Light 10h 52m
Length of Day
9h 54m
First Quarter, 57% of the Moon is Illuminated
Jan 19
First Quarter
Jan 26
Full
Feb 3
Last Quarter
Feb 10
New
Feb 17
First Quarter

Hourly Weather History & Observations

Time (EST) Temp. Windchill Dew Point Humidity Pressure Visibility Wind Dir Wind Speed Gust Speed Precip Events Conditions
12:15 AM 39.2 °F 30.8 °F 24.8 °F 56% 30.26 in 10.0 mi South 15.0 mph - N/A   Clear
12:35 AM 39.2 °F 30.5 °F 24.8 °F 56% 30.26 in 10.0 mi South 16.1 mph 21.9 mph N/A   Clear
12:55 AM 39.2 °F 30.8 °F 24.8 °F 56% 30.25 in 10.0 mi South 15.0 mph 20.7 mph N/A   Clear
1:15 AM 39.2 °F 30.8 °F 24.8 °F 56% 30.25 in 10.0 mi South 15.0 mph 19.6 mph N/A   Clear
1:35 AM 39.2 °F 31.2 °F 24.8 °F 56% 30.25 in 10.0 mi South 13.8 mph - N/A   Clear
1:55 AM 39.2 °F 30.5 °F 24.8 °F 56% 30.24 in 10.0 mi South 16.1 mph - N/A   Clear
2:15 AM 39.2 °F 30.2 °F 24.8 °F 56% 30.25 in 10.0 mi SSW 17.3 mph 21.9 mph N/A   Clear
2:35 AM 39.2 °F 30.5 °F 24.8 °F 56% 30.25 in 10.0 mi South 16.1 mph 21.9 mph N/A   Clear
2:55 AM 39.2 °F 31.2 °F 24.8 °F 56% 30.25 in 10.0 mi SSW 13.8 mph 20.7 mph N/A   Clear
3:15 AM 37.4 °F 29.8 °F 24.8 °F 60% 30.26 in 10.0 mi SSW 11.5 mph - N/A   Clear
3:35 AM 37.4 °F 29.3 °F 24.8 °F 60% 30.26 in 10.0 mi South 12.7 mph - N/A   Clear
3:55 AM 37.4 °F 29.8 °F 24.8 °F 60% 30.26 in 10.0 mi SSW 11.5 mph - N/A   Clear
4:15 AM 37.4 °F 29.8 °F 24.8 °F 60% 30.25 in 10.0 mi SSW 11.5 mph 16.1 mph N/A   Clear
4:35 AM 37.4 °F 30.3 °F 24.8 °F 60% 30.25 in 10.0 mi SSW 10.4 mph - N/A   Clear
4:55 AM 37.4 °F 29.8 °F 24.8 °F 60% 30.24 in 10.0 mi South 11.5 mph - N/A   Clear
5:15 AM 37.4 °F 29.8 °F 24.8 °F 60% 30.24 in 10.0 mi South 11.5 mph - N/A   Clear
5:35 AM 35.6 °F 28.0 °F 24.8 °F 65% 30.24 in 10.0 mi South 10.4 mph - N/A   Clear
5:55 AM 35.6 °F 28.0 °F 24.8 °F 65% 30.24 in 10.0 mi South 10.4 mph - N/A   Clear
6:15 AM 35.6 °F 27.1 °F 24.8 °F 65% 30.24 in 10.0 mi South 12.7 mph - N/A   Clear
6:35 AM 35.6 °F 27.1 °F 26.6 °F 70% 30.23 in 10.0 mi South 12.7 mph - N/A   Clear
6:55 AM 35.6 °F 27.1 °F 26.6 °F 70% 30.23 in 10.0 mi South 12.7 mph 16.1 mph N/A   Clear
7:15 AM 35.6 °F 27.1 °F 26.6 °F 70% 30.23 in 10.0 mi South 12.7 mph - N/A   Clear
7:35 AM 37.4 °F 29.8 °F 26.6 °F 65% 30.23 in 10.0 mi South 11.5 mph - N/A   Clear
7:55 AM 35.6 °F 28.0 °F 26.6 °F 70% 30.23 in 10.0 mi South 10.4 mph - N/A   Clear
8:15 AM 35.6 °F 27.5 °F 26.6 °F 70% 30.22 in 10.0 mi South 11.5 mph - N/A   Clear
8:35 AM 35.6 °F 27.5 °F 26.6 °F 70% 30.23 in 10.0 mi South 11.5 mph - N/A   Clear
8:55 AM 37.4 °F 28.5 °F 26.6 °F 65% 30.22 in 10.0 mi South 15.0 mph - N/A   Clear
9:15 AM 39.2 °F 29.8 °F 28.4 °F 65% 30.22 in 10.0 mi SSW 18.4 mph 25.3 mph N/A   Clear
9:35 AM 39.2 °F 29.3 °F 28.4 °F 65% 30.22 in 10.0 mi South 20.7 mph 25.3 mph N/A   Clear
9:55 AM 41.0 °F 32.5 °F 28.4 °F 61% 30.22 in 10.0 mi South 17.3 mph 26.5 mph N/A   Clear
10:15 AM 42.8 °F 34.0 °F 28.4 °F 57% 30.21 in 10.0 mi SSW 20.7 mph 26.5 mph N/A   Clear
10:35 AM 44.6 °F 37.2 °F 30.2 °F 57% 30.21 in 10.0 mi SSW 17.3 mph 25.3 mph N/A   Clear
10:55 AM 44.6 °F 36.1 °F 30.2 °F 57% 30.20 in 10.0 mi SSW 21.9 mph 29.9 mph N/A   Clear
11:15 AM 46.4 °F 38.7 °F 30.2 °F 53% 30.19 in 10.0 mi SSW 20.7 mph 31.1 mph N/A   Clear
11:35 AM 46.4 °F 38.7 °F 30.2 °F 53% 30.18 in 10.0 mi SSW 20.7 mph 29.9 mph N/A   Clear
11:55 AM 46.4 °F 38.3 °F 30.2 °F 53% 30.16 in 10.0 mi SSW 23.0 mph 33.4 mph N/A   Clear
12:15 PM 48.2 °F - 32.0 °F 54% 30.15 in 10.0 mi SSW 23.0 mph 31.1 mph N/A   Clear
12:35 PM 50.0 °F - 32.0 °F 50% 30.13 in 10.0 mi SSW 25.3 mph 31.1 mph N/A   Clear
12:55 PM 51.8 °F - 32.0 °F 47% 30.12 in 10.0 mi SSW 25.3 mph 29.9 mph N/A   Clear
1:15 PM 51.8 °F - 32.0 °F 47% 30.10 in 10.0 mi SSW 23.0 mph 31.1 mph N/A   Clear
1:35 PM 53.6 °F - 33.8 °F 47% 30.09 in 10.0 mi SSW 25.3 mph 29.9 mph N/A   Clear
1:55 PM 53.6 °F - 32.0 °F 44% 30.07 in 10.0 mi South 21.9 mph 34.5 mph N/A   Clear
2:15 PM 53.6 °F - 33.8 °F 47% 30.07 in 10.0 mi SSW 18.4 mph 27.6 mph N/A   Clear
2:35 PM 55.4 °F - 33.8 °F 44% 30.05 in 10.0 mi SSW 19.6 mph 28.8 mph N/A   Clear
2:55 PM 55.4 °F - 32.0 °F 41% 30.04 in 10.0 mi SSW 25.3 mph 28.8 mph N/A   Clear
3:15 PM 55.4 °F - 33.8 °F 44% 30.03 in 10.0 mi SSW 20.7 mph 26.5 mph N/A   Clear
3:35 PM 55.4 °F - 32.0 °F 41% 30.02 in 10.0 mi South 18.4 mph 29.9 mph N/A   Clear
3:55 PM 55.4 °F - 32.0 °F 41% 30.02 in 10.0 mi SSW 19.6 mph 26.5 mph N/A   Clear
4:15 PM 55.4 °F - 32.0 °F 41% 30.02 in 10.0 mi SSW 18.4 mph 29.9 mph N/A   Clear
4:35 PM 55.4 °F - 30.2 °F 38% 30.01 in 10.0 mi SSW 18.4 mph 26.5 mph N/A   Clear
4:55 PM 53.6 °F - 30.2 °F 41% 30.00 in 10.0 mi SSW 20.7 mph 26.5 mph N/A   Clear
5:15 PM 53.6 °F - 30.2 °F 41% 30.00 in 10.0 mi South 20.7 mph 25.3 mph N/A   Clear
5:35 PM 53.6 °F - 30.2 °F 41% 29.99 in 10.0 mi South 19.6 mph 26.5 mph N/A   Clear
5:55 PM 51.8 °F - 30.2 °F 44% 29.99 in 10.0 mi South 18.4 mph 27.6 mph N/A   Clear
6:35 PM 48.2 °F - 28.4 °F 46% 30.02 in 10.0 mi SSW 16.1 mph 20.7 mph N/A   Clear
6:55 PM 48.2 °F - 28.4 °F 46% 30.02 in 10.0 mi SSW 16.1 mph 21.9 mph N/A   Clear
7:15 PM 48.2 °F - 28.4 °F 46% 30.04 in 10.0 mi SSW 12.7 mph - N/A   Clear
7:35 PM 48.2 °F - 28.4 °F 46% 30.04 in 10.0 mi SSW 13.8 mph - N/A   Clear
7:55 PM 46.4 °F 40.7 °F 30.2 °F 53% 30.04 in 10.0 mi SSW 12.7 mph - N/A   Clear
8:15 PM 46.4 °F 39.8 °F 30.2 °F 53% 30.04 in 10.0 mi SSW 16.1 mph - N/A   Clear
8:35 PM 46.4 °F 39.8 °F 30.2 °F 53% 30.04 in 10.0 mi SSW 16.1 mph - N/A   Clear
8:55 PM 46.4 °F 39.8 °F 30.2 °F 53% 30.04 in 10.0 mi SSW 16.1 mph - N/A   Clear
9:15 PM 46.4 °F 39.8 °F 30.2 °F 53% 30.04 in 10.0 mi SSW 16.1 mph - N/A   Clear
9:35 PM 46.4 °F 39.2 °F 30.2 °F 53% 30.04 in 10.0 mi SSW 18.4 mph - N/A   Clear
9:55 PM 46.4 °F 39.5 °F 30.2 °F 53% 30.04 in 10.0 mi SSW 17.3 mph 21.9 mph N/A   Clear
10:15 PM 46.4 °F 39.2 °F 30.2 °F 53% 30.04 in 10.0 mi SSW 18.4 mph 24.2 mph N/A   Clear
10:35 PM 46.4 °F 39.5 °F 30.2 °F 53% 30.05 in 10.0 mi SW 17.3 mph 23.0 mph N/A   Clear
10:55 PM 46.4 °F 39.5 °F 30.2 °F 53% 30.06 in 10.0 mi SW 17.3 mph - N/A   Clear
11:15 PM 46.4 °F 40.7 °F 30.2 °F 53% 30.06 in 10.0 mi WSW 12.7 mph - N/A   Clear
11:35 PM 46.4 °F 40.1 °F 32.0 °F 57% 30.07 in 10.0 mi SW 15.0 mph 19.6 mph N/A   Clear
11:55 PM 46.4 °F 40.4 °F 33.8 °F 62% 30.06 in 10.0 mi SW 13.8 mph 18.4 mph N/A   Clear